Location: Invercargill
(46.4000°S, 168.3500°E)
Time: 09:25:11
(UTC+12:00)

Cosmos 1943 Rocket - Pass Details

Date: 14 May 2021
Orbit: 813 x 842 km, 71.0° (Epoch: 15 June)

Event Time Altitude Azimuth Distance (km) Brightness Sun altitude
Rises 19:08:05 0° 202° (SSW) 3,421 5.5 -17.7°
Reaches altitude 10° 19:10:53 10° 190° (S) 2,486 4.7 -18.2°
Maximum altitude 19:15:49 29° 130° (SE) 1,520 3.1 -19.0°
Enters shadow 19:15:55 29° 128° (SE) 1,520 3.1 -19.0°
